Charlotte, NC

5:39 AM EDT on September 25, 2017 (GMT -0400)
Charlotte-Douglas International

Weather History for KCLT - October, 2002

Change the Weather History Date:

Wednesday, October 9, 2002

  Actual Average Record
Temperature  
Mean Temperature 60 °F 62 °F  
Max Temperature 66 °F 74 °F 92 °F (2007)
Min Temperature 54 °F 51 °F 31 °F (2000)
Degree Days  
Heating Degree Days 5 4  
Month to date heating degree days 30  
Since 1 July heating degree days 53  
Cooling Degree Days 0 2  
Month to date cooling degree days 21  
Year to date cooling degree days 1496  
Growing Degree Days 10 (Base 50)    
Moisture  
Dew Point 55 °F    
Average Humidity 87    
Maximum Humidity 97    
Minimum Humidity 73    
Precipitation  
Precipitation 0.05 in 0.12 in 3.80 in (1894)
Month to date precipitation 1.06  
Year to date precipitation 32.90  
Snow  
Snow 0.00 in 0.00 in 0.00 in ()
Month to date snowfall 0.0  
Since 1 July snowfall 0.0  
Since 1 September snowfall 0.0  
Snow Depth -    
Sea Level Pressure  
Sea Level Pressure 30.23 in    
Wind  
Wind Speed 7 mph (North)    
Max Wind Speed 10 mph    
Max Gust Speed -    
Visibility 10 miles    
Events Rain    
T = Trace of Precipitation, MM = Missing Value Source: NWS Daily Summary

Daily Weather History Graph

Daily Weather History Graph

Search for Another Location

Airport or City:

Trip Planner

Search our weather history database for the weather conditions in past years. The results will help you decide how hot, cold, wet, or windy it might be!

Date:

Astronomy

Oct. 09, 2002 Rise Set
Actual Time 7:24 AM EDT 6:56 PM EDT
Civil Twilight 6:59 AM EDT 7:22 PM EDT
Nautical Twilight 6:29 AM EDT 7:51 PM EDT
Astronomical Twilight 6:00 AM EDT 8:20 PM EDT
Moon 11:02 AM EDT (10/9) 9:24 PM EDT (10/9)
Length of Visible Light 12h 22m
Length of Day
11h 31m
Waxing Crescent, 14% of the Moon is Illuminated
Oct 9
Waxing Crescent
Oct 13
First Quarter
Oct 21
Full
Oct 29
Last Quarter
Nov 4
New

Hourly Weather History & Observations

Time (EDT) Temp. Dew Point Humidity Pressure Visibility Wind Dir Wind Speed Gust Speed Precip Events Conditions
12:51 AM 54.0 °F 53.1 °F 97% 30.23 in 6.0 mi North 5.8 mph - 0.03 in Rain Light Rain
1:51 AM 54.0 °F 52.0 °F 93% 30.23 in 10.0 mi North 10.4 mph - 0.01 in Rain Light Rain
2:51 AM 55.0 °F 52.0 °F 89% 30.22 in 10.0 mi North 6.9 mph - 0.00 in Rain Light Rain
3:51 AM 54.0 °F 53.1 °F 97% 30.21 in 10.0 mi North 8.1 mph - 0.00 in   Overcast
4:51 AM 55.0 °F 53.1 °F 93% 30.22 in 9.0 mi North 8.1 mph - 0.00 in   Overcast
5:51 AM 55.0 °F 53.1 °F 93% 30.22 in 8.0 mi North 8.1 mph - 0.01 in   Overcast
6:51 AM 55.0 °F 53.1 °F 93% 30.24 in 8.0 mi North 8.1 mph - N/A   Overcast
7:51 AM 55.0 °F 53.1 °F 93% 30.25 in 7.0 mi North 8.1 mph - N/A   Overcast
8:51 AM 55.0 °F 53.1 °F 93% 30.26 in 9.0 mi North 9.2 mph - N/A   Overcast
9:51 AM 55.9 °F 53.1 °F 90% 30.27 in 10.0 mi NE 6.9 mph - N/A   Overcast
10:51 AM 57.0 °F 54.0 °F 89% 30.27 in 10.0 mi Variable 6.9 mph - N/A   Overcast
11:15 AM 57.2 °F 53.6 °F 88% 30.27 in 10.0 mi NNE 5.8 mph - 0.00 in   Overcast
11:51 AM 59.0 °F 54.0 °F 83% 30.26 in 10.0 mi NNE 6.9 mph - 0.00 in   Overcast
12:51 PM 63.0 °F 55.9 °F 78% 30.25 in 10.0 mi North 6.9 mph - N/A   Overcast
1:51 PM 63.0 °F 55.9 °F 78% 30.24 in 10.0 mi North 8.1 mph - N/A   Overcast
2:18 PM 62.6 °F 55.4 °F 77% 30.23 in 10.0 mi NNE 5.8 mph - N/A   Overcast
2:43 PM 66.2 °F 57.2 °F 73% 30.22 in 10.0 mi NNW 5.8 mph - N/A   Overcast
2:51 PM 64.0 °F 57.0 °F 78% 30.21 in 10.0 mi North 4.6 mph - N/A   Overcast
3:51 PM 64.9 °F 57.0 °F 75% 30.21 in 10.0 mi North 8.1 mph - N/A   Overcast
4:51 PM 64.9 °F 57.0 °F 75% 30.20 in 10.0 mi North 5.8 mph - N/A   Overcast
5:51 PM 64.0 °F 57.0 °F 78% 30.20 in 10.0 mi North 6.9 mph - N/A   Overcast
6:51 PM 62.1 °F 57.0 °F 84% 30.21 in 10.0 mi North 8.1 mph - N/A   Overcast
7:51 PM 60.1 °F 55.9 °F 86% 30.22 in 10.0 mi North 3.5 mph - N/A   Overcast
8:51 PM 57.9 °F 55.0 °F 90% 30.23 in 10.0 mi NNE 3.5 mph - N/A   Scattered Clouds
9:51 PM 57.0 °F 55.9 °F 96% 30.23 in 10.0 mi NNW 3.5 mph - N/A   Scattered Clouds
10:51 PM 57.0 °F 55.9 °F 96% 30.23 in 10.0 mi North 4.6 mph - N/A   Partly Cloudy
11:51 PM 57.0 °F 55.0 °F 93% 30.23 in 10.0 mi North 5.8 mph - N/A   Scattered Clouds